| time (UTC) | temp F | wind direction | speed MPH | gust MPH | rain 1hr in | rain 24hr in | rain mn in | humidity % | barometer mb |
| 20260505140317 | 73 | 150 | 4.0 | 11.0 | 0.00 | 0.00 | 0.00 | 96 | 1007.8 |
| 20260505130240 | 72 | 198 | 4.0 | 8.0 | 0.00 | 0.00 | 0.00 | 96 | 1007.3 |
| 20260505124731 | 72 | 199 | 7.0 | 13.0 | 0.00 | 0.00 | 0.00 | 97 | 1007.2 |
| 20260505124228 | 72 | 157 | 7.0 | 9.0 | 0.00 | 0.00 | 0.00 | 96 | 1007.2 |
| 20260505123723 | 71 | 195 | 3.0 | 14.0 | 0.00 | 0.00 | 0.00 | 96 | 1007.2 |
| 20260505123220 | 71 | 215 | 5.0 | 8.0 | 0.00 | 0.00 | 0.00 | 96 | 1007.3 |
| 20260505122716 | 71 | 203 | 0.0 | 7.0 | 0.00 | 0.00 | 0.00 | 96 | 1007.3 |
| 20260505122214 | 71 | 208 | 8.0 | 10.0 | 0.00 | 0.00 | 0.00 | 96 | 1007.1 |
| 20260505121705 | 71 | 195 | 2.0 | 11.0 | 0.00 | 0.00 | 0.00 | 96 | 1007.0 |
| 20260505121201 | 71 | 201 | 3.0 | 10.0 | 0.00 | 0.00 | 0.00 | 96 | 1007.2 |
| 20260505120658 | 71 | 213 | 5.0 | 7.0 | 0.00 | 0.00 | 0.00 | 96 | 1007.0 |
| 20260505120153 | 71 | 214 | 3.0 | 10.0 | 0.00 | 0.00 | 0.00 | 96 | 1006.8 |
| 20260505115647 | 71 | 214 | 0.0 | 7.0 | 0.00 | 0.00 | 0.00 | 96 | 1006.8 |
| 20260505115146 | 71 | 215 | 7.0 | 7.0 | 0.00 | 0.00 | 0.00 | 96 | 1006.9 |
| 20260505114643 | 71 | 210 | 2.0 | 9.0 | 0.00 | 0.00 | 0.00 | 96 | 1007.0 |
| 20260505114139 | 71 | 201 | 5.0 | 14.0 | 0.00 | 0.00 | 0.00 | 95 | 1007.0 |
| 20260505113635 | 71 | 151 | 6.0 | 11.0 | 0.00 | 0.00 | 0.00 | 95 | 1007.1 |
| 20260505113132 | 71 | 223 | 5.0 | 8.0 | 0.00 | 0.00 | 0.00 | 96 | 1007.2 |
| 20260505112628 | 71 | 205 | 4.0 | 11.0 | 0.00 | 0.00 | 0.00 | 95 | 1006.9 |
| 20260505112126 | 71 | 177 | 2.0 | 11.0 | 0.00 | 0.00 | 0.00 | 95 | 1006.8 |
| 20260505111626 | 71 | 226 | 4.0 | 12.0 | 0.00 | 0.00 | 0.00 | 95 | 1006.7 |
| 20260505111122 | 71 | 226 | 12.0 | 12.0 | 0.00 | 0.00 | 0.00 | 95 | 1007.0 |
| 20260505110618 | 71 | 208 | 5.0 | 13.0 | 0.00 | 0.00 | 0.00 | 95 | 1006.9 |
| 20260505110115 | 71 | 208 | 5.0 | 11.0 | 0.00 | 0.00 | 0.00 | 95 | 1006.8 |
| 20260505102051 | 71 | 222 | 6.0 | 13.0 | 0.00 | 0.00 | 0.00 | 95 | 1006.8 |
| 20260505101550 | 71 | 214 | 6.0 | 11.0 | 0.00 | 0.00 | 0.00 | 95 | 1007.1 |
| 20260505101046 | 71 | 225 | 4.0 | 12.0 | 0.00 | 0.00 | 0.00 | 95 | 1007.1 |
| 20260505100542 | 71 | 216 | 7.0 | 7.0 | 0.00 | 0.00 | 0.00 | 95 | 1006.9 |
| 20260505100039 | 70 | 241 | 4.0 | 8.0 | 0.00 | 0.00 | 0.00 | 95 | 1006.7 |
| 20260505095535 | 71 | 204 | 7.0 | 11.0 | 0.00 | 0.00 | 0.00 | 95 | 1007.1 |
| 20260505095032 | 71 | 200 | 6.0 | 11.0 | 0.00 | 0.00 | 0.00 | 95 | 1007.2 |
| 20260505094528 | 71 | 257 | 1.0 | 12.0 | 0.00 | 0.00 | 0.00 | 95 | 1007.2 |
| 20260505094025 | 71 | 209 | 3.0 | 12.0 | 0.00 | 0.00 | 0.00 | 95 | 1006.9 |
| 20260505093521 | 71 | 241 | 4.0 | 13.0 | 0.00 | 0.00 | 0.00 | 95 | 1006.8 |
| 20260505093019 | 71 | 227 | 5.0 | 14.0 | 0.00 | 0.00 | 0.00 | 95 | 1007.1 |
| 20260505092516 | 71 | 221 | 0.0 | 16.0 | 0.00 | 0.00 | 0.00 | 95 | 1007.1 |
| 20260505092014 | 71 | 220 | 14.0 | 16.0 | 0.00 | 0.00 | 0.00 | 94 | 1007.0 |
| 20260505091511 | 71 | 154 | 4.0 | 8.0 | 0.00 | 0.00 | 0.00 | 95 | 1007.3 |
| 20260505091009 | 71 | 168 | 7.0 | 14.0 | 0.00 | 0.00 | 0.00 | 95 | 1007.2 |
| 20260505090507 | 71 | 176 | 4.0 | 14.0 | 0.00 | 0.00 | 0.00 | 94 | 1007.3 |
| 20260505090004 | 71 | 189 | 5.0 | 8.0 | 0.00 | 0.00 | 0.00 | 95 | 1007.3 |
| 20260505085502 | 71 | 223 | 4.0 | 9.0 | 0.00 | 0.00 | 0.00 | 95 | 1007.3 |
| 20260505085000 | 71 | 225 | 7.0 | 13.0 | 0.00 | 0.00 | 0.00 | 95 | 1007.3 |
| 20260505084458 | 71 | 221 | 7.0 | 9.0 | 0.00 | 0.00 | 0.00 | 95 | 1007.4 |
| 20260505083955 | 71 | 187 | 1.0 | 13.0 | 0.00 | 0.00 | 0.00 | 95 | 1007.5 |
| 20260505083452 | 71 | 154 | 1.0 | 11.0 | 0.00 | 0.00 | 0.00 | 95 | 1007.3 |
| 20260505082949 | 71 | 217 | 13.0 | 22.0 | 0.00 | 0.00 | 0.00 | 95 | 1007.5 |
| 20260505082444 | 71 | 152 | 5.0 | 12.0 | 0.00 | 0.00 | 0.00 | 95 | 1007.7 |
| 20260505081942 | 71 | 214 | 5.0 | 15.0 | 0.00 | 0.00 | 0.00 | 94 | 1008.0 |
| 20260505081439 | 71 | 224 | 9.0 | 15.0 | 0.00 | 0.00 | 0.00 | 94 | 1007.9 |
| 20260505080935 | 71 | 214 | 7.0 | 11.0 | 0.00 | 0.00 | 0.00 | 94 | 1007.8 |
| 20260505080431 | 71 | 208 | 5.0 | 12.0 | 0.00 | 0.00 | 0.00 | 95 | 1007.9 |
| 20260505075926 | 71 | 206 | 4.0 | 8.0 | 0.00 | 0.00 | 0.00 | 95 | 1007.8 |
| 20260505075424 | 71 | 237 | 2.0 | 9.0 | 0.00 | 0.00 | 0.00 | 95 | 1007.8 |
| 20260505074921 | 71 | 169 | 6.0 | 15.0 | 0.00 | 0.00 | 0.00 | 95 | 1007.8 |
| 20260505074419 | 70 | 237 | 2.0 | 6.0 | 0.00 | 0.00 | 0.00 | 95 | 1008.2 |
| 20260505073915 | 70 | 220 | 3.0 | 7.0 | 0.00 | 0.00 | 0.00 | 95 | 1008.1 |
| 20260505073413 | 70 | 206 | 0.0 | 6.0 | 0.00 | 0.00 | 0.00 | 95 | 1007.9 |
| 20260505072910 | 70 | 148 | 5.0 | 5.0 | 0.00 | 0.00 | 0.00 | 95 | 1007.9 |
| 20260505072406 | 70 | 235 | 4.0 | 11.0 | 0.00 | 0.00 | 0.00 | 95 | 1008.1 |
| 20260505071902 | 70 | 242 | 0.0 | 7.0 | 0.00 | 0.00 | 0.00 | 95 | 1008.4 |
| 20260505071359 | 70 | 218 | 7.0 | 9.0 | 0.00 | 0.00 | 0.00 | 94 | 1008.5 |
| 20260505070857 | 70 | 161 | 2.0 | 8.0 | 0.00 | 0.00 | 0.00 | 95 | 1008.4 |
| 20260505070353 | 70 | 144 | 2.0 | 8.0 | 0.00 | 0.00 | 0.00 | 95 | 1008.5 |
| 20260505065848 | 70 | 147 | 5.0 | 8.0 | 0.00 | 0.00 | 0.00 | 94 | 1008.5 |
| 20260505065346 | 70 | 216 | 6.0 | 13.0 | 0.00 | 0.00 | 0.00 | 94 | 1008.7 |
| 20260505064842 | 70 | 169 | 3.0 | 6.0 | 0.00 | 0.00 | 0.00 | 94 | 1008.9 |
| 20260505064339 | 70 | 145 | 3.0 | 6.0 | 0.00 | 0.00 | 0.00 | 94 | 1008.7 |
| 20260505063838 | 70 | 180 | 1.0 | 7.0 | 0.00 | 0.00 | 0.00 | 93 | 1008.7 |
| 20260505063333 | 70 | 186 | 5.0 | 12.0 | 0.00 | 0.00 | 0.00 | 93 | 1008.9 |
| 20260505062830 | 70 | 210 | 3.0 | 13.0 | 0.00 | 0.00 | 0.00 | 93 | 1008.7 |
| 20260505062328 | 70 | 211 | 5.0 | 9.0 | 0.00 | 0.00 | 0.00 | 93 | 1008.6 |
| 20260505061824 | 70 | 150 | 3.0 | 9.0 | 0.00 | 0.00 | 0.00 | 93 | 1008.7 |
| 20260505061323 | 70 | 225 | 5.0 | 7.0 | 0.00 | 0.00 | 0.00 | 93 | 1008.7 |
| 20260505060820 | 70 | 219 | 7.0 | 14.0 | 0.00 | 0.00 | 0.00 | 93 | 1008.5 |
| 20260505060316 | 70 | 180 | 5.0 | 11.0 | 0.00 | 0.00 | 0.00 | 93 | 1008.5 |
| 20260505055812 | 70 | 184 | 7.0 | 10.0 | 0.00 | 0.00 | 0.00 | 93 | 1008.6 |
| 20260505055308 | 70 | 235 | 3.0 | 12.0 | 0.00 | 0.00 | 0.00 | 93 | 1008.3 |
| 20260505054806 | 70 | 225 | 9.0 | 11.0 | 0.00 | 0.00 | 0.00 | 92 | 1008.6 |
| 20260505054303 | 70 | 168 | 4.0 | 14.0 | 0.00 | 0.00 | 0.00 | 92 | 1008.4 |
| 20260505053801 | 70 | 173 | 3.0 | 9.0 | 0.00 | 0.00 | 0.00 | 93 | 1008.4 |
| 20260505053258 | 70 | 168 | 5.0 | 6.0 | 0.00 | 0.00 | 0.00 | 92 | 1008.7 |
| 20260505052755 | 70 | 206 | 3.0 | 10.0 | 0.00 | 0.00 | 0.00 | 92 | 1008.7 |
| 20260505052252 | 70 | 216 | 2.0 | 9.0 | 0.00 | 0.00 | 0.00 | 92 | 1008.9 |
| 20260505051749 | 70 | 185 | 3.0 | 12.0 | 0.00 | 0.00 | 0.00 | 91 | 1008.8 |
| 20260505051247 | 70 | 212 | 5.0 | 10.0 | 0.00 | 0.00 | 0.00 | 91 | 1008.9 |
| 20260505050744 | 70 | 185 | 3.0 | 13.0 | 0.00 | 0.00 | 0.00 | 91 | 1008.5 |
| 20260505050243 | 71 | 153 | 5.0 | 9.0 | 0.00 | 0.00 | 0.00 | 91 | 1008.4 |
| 20260505041712 | 71 | 208 | 6.0 | 18.0 | 0.00 | 0.00 | 0.00 | 90 | 1009.2 |
| 20260505041209 | 71 | 204 | 5.0 | 7.0 | 0.00 | 0.00 | 0.00 | 90 | 1009.0 |
| 20260505040707 | 71 | 153 | 4.0 | 8.0 | 0.00 | 0.00 | 0.00 | 89 | 1009.1 |
| 20260505040204 | 71 | 169 | 3.0 | 15.0 | 0.00 | 0.00 | 0.00 | 89 | 1009.0 |
| 20260505035700 | 71 | 209 | 7.0 | 11.0 | 0.00 | 0.00 | 0.00 | 89 | 1009.0 |
| 20260505035156 | 72 | 197 | 3.0 | 13.0 | 0.00 | 0.00 | 0.00 | 89 | 1009.2 |
| 20260505034653 | 72 | 180 | 4.0 | 8.0 | 0.00 | 0.00 | 0.00 | 88 | 1009.1 |
| 20260505034151 | 72 | 194 | 5.0 | 12.0 | 0.00 | 0.00 | 0.00 | 88 | 1009.0 |
| 20260505033646 | 72 | 183 | 5.0 | 6.0 | 0.00 | 0.00 | 0.00 | 88 | 1008.8 |
| 20260505033145 | 72 | 201 | 3.0 | 10.0 | 0.00 | 0.00 | 0.00 | 88 | 1008.7 |
| 20260505032643 | 72 | 159 | 4.0 | 13.0 | 0.00 | 0.00 | 0.00 | 88 | 1008.9 |
| 20260505032138 | 73 | 157 | 7.0 | 11.0 | 0.00 | 0.00 | 0.00 | 87 | 1009.1 |
| 20260505031636 | 73 | 164 | 6.0 | 13.0 | 0.00 | 0.00 | 0.00 | 87 | 1008.9 |
| 20260505031126 | 73 | 158 | 6.0 | 12.0 | 0.00 | 0.00 | 0.00 | 87 | 1009.1 |
| 20260505030624 | 73 | 137 | 7.0 | 9.0 | 0.00 | 0.00 | 0.00 | 87 | 1008.7 |
| 20260505030120 | 73 | 158 | 3.0 | 10.0 | 0.00 | 0.00 | 0.00 | 87 | 1008.8 |
| 20260505025615 | 73 | 155 | 4.0 | 13.0 | 0.00 | 0.00 | 0.00 | 87 | 1008.9 |
| 20260505025114 | 73 | 140 | 5.0 | 14.0 | 0.00 | 0.00 | 0.00 | 86 | 1008.9 |
| 20260505024611 | 73 | 172 | 3.0 | 8.0 | 0.00 | 0.00 | 0.00 | 86 | 1008.7 |
| 20260505024109 | 73 | 155 | 6.0 | 11.0 | 0.00 | 0.00 | 0.00 | 86 | 1008.7 |
| 20260505023606 | 73 | 147 | 5.0 | 7.0 | 0.00 | 0.00 | 0.00 | 86 | 1008.9 |
| 20260505023103 | 73 | 168 | 2.0 | 11.0 | 0.00 | 0.00 | 0.00 | 86 | 1008.9 |
| 20260505022601 | 73 | 161 | 5.0 | 7.0 | 0.00 | 0.00 | 0.00 | 86 | 1008.7 |
| 20260505022057 | 73 | 165 | 2.0 | 10.0 | 0.00 | 0.00 | 0.00 | 86 | 1008.8 |
| 20260505021554 | 73 | 189 | 4.0 | 6.0 | 0.00 | 0.00 | 0.00 | 86 | 1008.6 |
| 20260505021051 | 73 | 157 | 5.0 | 6.0 | 0.00 | 0.00 | 0.00 | 86 | 1008.7 |
| 20260505020550 | 73 | 203 | 5.0 | 9.0 | 0.00 | 0.00 | 0.00 | 86 | 1008.6 |
| 20260505020048 | 73 | 147 | 2.0 | 9.0 | 0.00 | 0.00 | 0.00 | 86 | 1008.7 |
| 20260505015545 | 73 | 131 | 3.0 | 8.0 | 0.00 | 0.00 | 0.00 | 86 | 1008.7 |
| 20260505015041 | 73 | 151 | 5.0 | 6.0 | 0.00 | 0.00 | 0.00 | 86 | 1008.6 |
| 20260505014538 | 73 | 159 | 3.0 | 5.0 | 0.00 | 0.00 | 0.00 | 86 | 1008.5 |
| 20260505014036 | 74 | 162 | 3.0 | 5.0 | 0.00 | 0.00 | 0.00 | 86 | 1008.6 |
| 20260505013532 | 74 | 180 | 2.0 | 5.0 | 0.00 | 0.00 | 0.00 | 85 | 1008.4 |
| 20260505013030 | 74 | 140 | 3.0 | 4.0 | 0.00 | 0.00 | 0.00 | 86 | 1008.5 |
| 20260505012528 | 74 | 185 | 1.0 | 4.0 | 0.00 | 0.00 | 0.00 | 85 | 1008.2 |
| 20260505012025 | 74 | 187 | 2.0 | 5.0 | 0.00 | 0.00 | 0.00 | 84 | 1008.3 |
| 20260505011520 | 75 | 151 | 5.0 | 6.0 | 0.00 | 0.00 | 0.00 | 83 | 1008.3 |
| 20260505011018 | 75 | 203 | 1.0 | 7.0 | 0.00 | 0.00 | 0.00 | 83 | 1008.2 |
| 20260505010513 | 75 | 245 | 0.0 | 3.0 | 0.00 | 0.00 | 0.00 | 83 | 1008.2 |
| 20260505010010 | 75 | 140 | 4.0 | 7.0 | 0.00 | 0.00 | 0.00 | 82 | 1007.9 |
| 20260505005506 | 76 | 195 | 0.0 | 7.0 | 0.00 | 0.00 | 0.00 | 82 | 1008.2 |
| 20260505005004 | 76 | 166 | 3.0 | 4.0 | 0.00 | 0.00 | 0.00 | 81 | 1008.0 |
| 20260505004501 | 76 | 208 | 11.0 | 11.0 | 0.00 | 0.00 | 0.00 | 80 | 1008.0 |
| 20260505003958 | 77 | 188 | 0.0 | 9.0 | 0.00 | 0.00 | 0.00 | 80 | 1008.1 |
| 20260505003455 | 77 | 240 | 3.0 | 8.0 | 0.00 | 0.00 | 0.00 | 80 | 1008.2 |
| 20260505002950 | 77 | 147 | 12.0 | 13.0 | 0.00 | 0.00 | 0.00 | 79 | 1008.2 |
| 20260505002447 | 77 | 202 | 3.0 | 8.0 | 0.00 | 0.00 | 0.00 | 79 | 1008.1 |
| 20260505001945 | 78 | 139 | 2.0 | 7.0 | 0.00 | 0.00 | 0.00 | 79 | 1008.2 |
| 20260505001443 | 78 | 188 | 0.0 | 11.0 | 0.00 | 0.00 | 0.00 | 79 | 1008.2 |
| 20260505000939 | 78 | 209 | 0.0 | 5.0 | 0.00 | 0.00 | 0.00 | 78 | 1008.2 |
| 20260505000438 | 78 | 212 | 4.0 | 9.0 | 0.00 | 0.00 | 0.00 | 78 | 1008.3 |
| 20260504235934 | 78 | 231 | 6.0 | 7.0 | 0.00 | 0.00 | 0.00 | 78 | 1008.4 |
| 20260504235431 | 78 | 226 | 5.0 | 9.0 | 0.00 | 0.00 | 0.00 | 77 | 1008.3 |
| 20260504234927 | 79 | 163 | 6.0 | 9.0 | 0.00 | 0.00 | 0.00 | 76 | 1008.5 |
| 20260504234425 | 79 | 180 | 5.0 | 12.0 | 0.00 | 0.00 | 0.00 | 76 | 1008.7 |
| 20260504233921 | 79 | 196 | 4.0 | 8.0 | 0.00 | 0.00 | 0.00 | 76 | 1008.6 |
| 20260504233417 | 79 | 228 | 6.0 | 11.0 | 0.00 | 0.00 | 0.00 | 76 | 1008.4 |
| 20260504232914 | 79 | 244 | 8.0 | 10.0 | 0.00 | 0.00 | 0.00 | 75 | 1008.6 |
| 20260504232411 | 79 | 227 | 7.0 | 11.0 | 0.00 | 0.00 | 0.00 | 74 | 1008.6 |
| 20260504231908 | 80 | 156 | 9.0 | 11.0 | 0.00 | 0.00 | 0.00 | 74 | 1008.7 |
| 20260504231404 | 80 | 191 | 2.0 | 8.0 | 0.00 | 0.00 | 0.00 | 73 | 1008.8 |
| 20260504230901 | 80 | 209 | 3.0 | 7.0 | 0.00 | 0.00 | 0.00 | 73 | 1008.9 |
| 20260504230358 | 80 | 148 | 5.0 | 11.0 | 0.00 | 0.00 | 0.00 | 73 | 1008.8 |
| 20260504225857 | 80 | 0 | 0.0 | 7.0 | 0.00 | 0.00 | 0.00 | 73 | 1008.6 |
| 20260504225353 | 81 | 176 | 2.0 | 6.0 | 0.00 | 0.00 | 0.00 | 72 | 1008.7 |
| 20260504224851 | 82 | 178 | 7.0 | 11.0 | 0.00 | 0.00 | 0.00 | 69 | 1008.6 |
| 20260504224347 | 82 | 172 | 5.0 | 14.0 | 0.00 | 0.00 | 0.00 | 68 | 1008.8 |
| 20260504223844 | 82 | 198 | 3.0 | 10.0 | 0.00 | 0.00 | 0.00 | 68 | 1008.9 |
| 20260504223339 | 81 | 197 | 4.0 | 8.0 | 0.00 | 0.00 | 0.00 | 70 | 1009.0 |
| 20260504222836 | 81 | 218 | 4.0 | 10.0 | 0.00 | 0.00 | 0.00 | 70 | 1009.1 |
| 20260504222333 | 82 | 174 | 5.0 | 8.0 | 0.00 | 0.00 | 0.00 | 67 | 1009.0 |
| 20260504221832 | 82 | 229 | 4.0 | 6.0 | 0.00 | 0.00 | 0.00 | 70 | 1009.1 |
| 20260504221328 | 82 | 201 | 2.0 | 9.0 | 0.00 | 0.00 | 0.00 | 69 | 1008.9 |
| 20260504220825 | 82 | 165 | 4.0 | 15.0 | 0.00 | 0.00 | 0.00 | 69 | 1009.3 |
| 20260504220322 | 83 | 213 | 4.0 | 8.0 | 0.00 | 0.00 | 0.00 | 69 | 1008.9 |
| 20260504215819 | 81 | 233 | 3.0 | 5.0 | 0.00 | 0.00 | 0.00 | 71 | 1009.0 |
| 20260504215315 | 82 | 116 | 5.0 | 8.0 | 0.00 | 0.00 | 0.00 | 69 | 1009.3 |
| 20260504214811 | 81 | 216 | 14.0 | 17.0 | 0.00 | 0.00 | 0.00 | 69 | 1009.3 |
| 20260504214309 | 83 | 236 | 0.0 | 7.0 | 0.00 | 0.00 | 0.00 | 69 | 1009.1 |
| 20260504213805 | 81 | 225 | 6.0 | 9.0 | 0.00 | 0.00 | 0.00 | 70 | 1009.5 |
| 20260504213301 | 82 | 223 | 4.0 | 9.0 | 0.00 | 0.00 | 0.00 | 69 | 1009.5 |
| 20260504212759 | 82 | 208 | 3.0 | 8.0 | 0.00 | 0.00 | 0.00 | 69 | 1009.4 |
| 20260504212255 | 81 | 186 | 4.0 | 10.0 | 0.00 | 0.00 | 0.00 | 71 | 1009.7 |
| 20260504211752 | 81 | 217 | 14.0 | 14.0 | 0.00 | 0.00 | 0.00 | 69 | 1009.8 |
| 20260504211248 | 81 | 135 | 3.0 | 8.0 | 0.00 | 0.00 | 0.00 | 70 | 1009.9 |
| 20260504210746 | 81 | 192 | 4.0 | 14.0 | 0.00 | 0.00 | 0.00 | 70 | 1009.9 |
| 20260504210243 | 81 | 192 | 2.0 | 11.0 | 0.00 | 0.00 | 0.00 | 70 | 1010.2 |
| 20260504205740 | 81 | 160 | 6.0 | 7.0 | 0.00 | 0.00 | 0.00 | 69 | 1010.0 |
| 20260504205238 | 81 | 207 | 5.0 | 11.0 | 0.00 | 0.00 | 0.00 | 71 | 1010.6 |
| 20260504204736 | 81 | 212 | 14.0 | 14.0 | 0.00 | 0.00 | 0.00 | 69 | 1010.4 |
| 20260504204234 | 81 | 185 | 2.0 | 9.0 | 0.00 | 0.00 | 0.00 | 70 | 1010.6 |
| 20260504203733 | 81 | 205 | 6.0 | 11.0 | 0.00 | 0.00 | 0.00 | 69 | 1010.7 |
| 20260504203230 | 80 | 211 | 5.0 | 7.0 | 0.00 | 0.00 | 0.00 | 70 | 1010.9 |
| 20260504202730 | 81 | 180 | 0.0 | 8.0 | 0.00 | 0.00 | 0.00 | 68 | 1010.8 |
| 20260504202227 | 81 | 232 | 4.0 | 10.0 | 0.00 | 0.00 | 0.00 | 69 | 1010.8 |
| 20260504201724 | 81 | 204 | 9.0 | 13.0 | 0.00 | 0.00 | 0.00 | 68 | 1010.8 |
| 20260504201221 | 80 | 207 | 15.0 | 17.0 | 0.00 | 0.00 | 0.00 | 68 | 1011.1 |
| 20260504200719 | 80 | 157 | 9.0 | 12.0 | 0.00 | 0.00 | 0.00 | 67 | 1011.3 |
| 20260504200215 | 80 | 135 | 4.0 | 12.0 | 0.00 | 0.00 | 0.00 | 69 | 1011.1 |
| 20260504195711 | 80 | 229 | 5.0 | 9.0 | 0.00 | 0.00 | 0.00 | 71 | 1011.2 |
| 20260504195207 | 80 | 218 | 5.0 | 13.0 | 0.00 | 0.00 | 0.00 | 71 | 1011.2 |
| 20260504194704 | 80 | 220 | 2.0 | 9.0 | 0.00 | 0.00 | 0.00 | 70 | 1011.4 |
| 20260504194201 | 80 | 159 | 8.0 | 11.0 | 0.00 | 0.00 | 0.00 | 69 | 1011.4 |
| 20260504193657 | 80 | 177 | 5.0 | 7.0 | 0.00 | 0.00 | 0.00 | 69 | 1011.7 |
| 20260504193155 | 80 | 219 | 4.0 | 11.0 | 0.00 | 0.00 | 0.00 | 71 | 1011.8 |
| 20260504192652 | 80 | 180 | 4.0 | 5.0 | 0.00 | 0.00 | 0.00 | 70 | 1011.9 |
| 20260504192150 | 79 | 221 | 6.0 | 11.0 | 0.00 | 0.00 | 0.00 | 72 | 1011.9 |
| 20260504191649 | 78 | 226 | 4.0 | 11.0 | 0.00 | 0.00 | 0.00 | 72 | 1011.8 |
| 20260504191144 | 79 | 206 | 6.0 | 12.0 | 0.00 | 0.00 | 0.00 | 72 | 1011.9 |
| 20260504190640 | 80 | 228 | 7.0 | 11.0 | 0.00 | 0.00 | 0.00 | 71 | 1012.1 |
| 20260504190137 | 79 | 169 | 7.0 | 9.0 | 0.00 | 0.00 | 0.00 | 71 | 1012.1 |
| 20260504185633 | 78 | 206 | 11.0 | 13.0 | 0.00 | 0.00 | 0.00 | 72 | 1012.1 |
| 20260504185130 | 78 | 183 | 5.0 | 15.0 | 0.00 | 0.00 | 0.00 | 71 | 1012.4 |
| 20260504184626 | 78 | 208 | 5.0 | 8.0 | 0.00 | 0.00 | 0.00 | 70 | 1012.1 |
| 20260504184121 | 78 | 232 | 4.0 | 11.0 | 0.00 | 0.00 | 0.00 | 74 | 1012.5 |
| 20260504183619 | 78 | 235 | 3.0 | 9.0 | 0.00 | 0.00 | 0.00 | 73 | 1012.3 |
| 20260504183116 | 77 | 186 | 3.0 | 13.0 | 0.00 | 0.00 | 0.00 | 73 | 1012.7 |
| 20260504182614 | 77 | 222 | 10.0 | 13.0 | 0.00 | 0.00 | 0.00 | 73 | 1012.3 |
| 20260504182111 | 77 | 212 | 9.0 | 13.0 | 0.00 | 0.00 | 0.00 | 71 | 1013.0 |
| 20260504181608 | 78 | 177 | 5.0 | 12.0 | 0.00 | 0.00 | 0.00 | 71 | 1012.7 |
| 20260504181106 | 77 | 226 | 7.0 | 13.0 | 0.00 | 0.00 | 0.00 | 73 | 1013.0 |
| 20260504180605 | 77 | 206 | 13.0 | 15.0 | 0.00 | 0.00 | 0.00 | 71 | 1013.1 |
| 20260504180103 | 77 | 222 | 3.0 | 8.0 | 0.00 | 0.00 | 0.00 | 71 | 1013.0 |
| 20260504175600 | 79 | 212 | 2.0 | 7.0 | 0.00 | 0.00 | 0.00 | 71 | 1013.5 |
| 20260504175057 | 77 | 229 | 5.0 | 12.0 | 0.00 | 0.00 | 0.00 | 71 | 1013.1 |
| 20260504174555 | 77 | 191 | 3.0 | 9.0 | 0.00 | 0.00 | 0.00 | 70 | 1013.4 |
| 20260504174051 | 78 | 205 | 8.0 | 10.0 | 0.00 | 0.00 | 0.00 | 71 | 1013.1 |
| 20260504173548 | 77 | 217 | 10.0 | 14.0 | 0.00 | 0.00 | 0.00 | 70 | 1013.2 |
| 20260504173046 | 78 | 194 | 3.0 | 10.0 | 0.00 | 0.00 | 0.00 | 71 | 1013.5 |
| 20260504172541 | 78 | 223 | 5.0 | 13.0 | 0.00 | 0.00 | 0.00 | 69 | 1013.5 |
| 20260504172038 | 77 | 227 | 16.0 | 21.0 | 0.00 | 0.00 | 0.00 | 71 | 1013.4 |
| 20260504171535 | 78 | 192 | 7.0 | 13.0 | 0.00 | 0.00 | 0.00 | 70 | 1013.4 |
| 20260504171032 | 77 | 197 | 5.0 | 11.0 | 0.00 | 0.00 | 0.00 | 70 | 1013.4 |
| 20260504170528 | 78 | 209 | 5.0 | 7.0 | 0.00 | 0.00 | 0.00 | 70 | 1013.7 |
| 20260504150912 | 72 | 207 | 8.0 | 14.0 | 0.00 | 0.00 | 0.00 | 77 | 1014.8 |
| 20260504150409 | 73 | 143 | 8.0 | 12.0 | 0.00 | 0.00 | 0.00 | 78 | 1014.6 |